| time (UTC) | temp C | wind direction | speed KPH | gust KPH | rain 1hr cm | rain 24hr cm | rain mn cm | humidity % | barometer mb |
| 20260504050405 | 21 | 148 | 3.2 | 11.3 | 0.00 | 0.00 | 0.00 | 72 | 1017.8 |
| 20260504045905 | 21 | 143 | 4.8 | 9.7 | 0.00 | 0.00 | 0.00 | 72 | 1018.1 |
| 20260504045405 | 21 | 167 | 4.8 | 12.9 | 0.00 | 0.00 | 0.00 | 71 | 1018.1 |
| 20260504044405 | 21 | 133 | 3.2 | 8.0 | 0.00 | 0.00 | 0.00 | 71 | 1018.2 |
| 20260504043904 | 21 | 152 | 3.2 | 4.8 | 0.00 | 0.00 | 0.00 | 70 | 1018.3 |
| 20260504043405 | 21 | 142 | 6.4 | 12.9 | 0.00 | 0.00 | 0.00 | 70 | 1018.3 |
| 20260504042904 | 21 | 137 | 8.0 | 14.5 | 0.00 | 0.00 | 0.00 | 69 | 1018.3 |
| 20260504041404 | 21 | 143 | 4.8 | 11.3 | 0.00 | 0.00 | 0.00 | 70 | 1018.5 |
| 20260504040905 | 21 | 157 | 6.4 | 14.5 | 0.00 | 0.00 | 0.00 | 70 | 1018.4 |
| 20260504040405 | 21 | 146 | 8.0 | 16.1 | 0.00 | 0.00 | 0.00 | 70 | 1018.3 |
| 20260504035906 | 21 | 141 | 4.8 | 14.5 | 0.00 | 0.00 | 0.00 | 70 | 1018.3 |
| 20260504035404 | 21 | 139 | 8.0 | 16.1 | 0.00 | 0.00 | 0.00 | 70 | 1018.3 |
| 20260504034405 | 21 | 133 | 3.2 | 8.0 | 0.00 | 0.00 | 0.00 | 70 | 1018.2 |
| 20260504033904 | 21 | 156 | 6.4 | 14.5 | 0.00 | 0.00 | 0.00 | 71 | 1018.1 |
| 20260504033405 | 21 | 141 | 4.8 | 14.5 | 0.00 | 0.00 | 0.00 | 70 | 1018.2 |
| 20260504032405 | 21 | 151 | 4.8 | 12.9 | 0.00 | 0.00 | 0.00 | 70 | 1018.3 |
| 20260504031904 | 21 | 137 | 4.8 | 8.0 | 0.00 | 0.00 | 0.00 | 70 | 1018.2 |
| 20260504031405 | 21 | 150 | 3.2 | 12.9 | 0.00 | 0.00 | 0.00 | 70 | 1018.3 |
| 20260504030905 | 21 | 137 | 6.4 | 11.3 | 0.00 | 0.00 | 0.00 | 70 | 1018.1 |
| 20260504030404 | 21 | 128 | 3.2 | 8.0 | 0.00 | 0.00 | 0.00 | 69 | 1018.1 |
| 20260504025905 | 21 | 145 | 3.2 | 9.7 | 0.00 | 0.00 | 0.00 | 69 | 1018.2 |
| 20260504025405 | 21 | 139 | 4.8 | 11.3 | 0.00 | 0.00 | 0.00 | 69 | 1018.2 |
| 20260504024904 | 21 | 146 | 4.8 | 9.7 | 0.00 | 0.00 | 0.00 | 69 | 1018.3 |
| 20260504023905 | 21 | 142 | 4.8 | 9.7 | 0.00 | 0.00 | 0.00 | 69 | 1018.1 |
| 20260504023405 | 21 | 147 | 4.8 | 9.7 | 0.00 | 0.00 | 0.00 | 69 | 1018.2 |
| 20260504022904 | 21 | 137 | 3.2 | 11.3 | 0.00 | 0.00 | 0.00 | 69 | 1018.3 |
| 20260504022404 | 21 | 140 | 3.2 | 4.8 | 0.00 | 0.00 | 0.00 | 68 | 1018.2 |
| 20260504021905 | 21 | 144 | 3.2 | 8.0 | 0.00 | 0.00 | 0.00 | 68 | 1018.1 |
| 20260504021404 | 21 | 146 | 3.2 | 8.0 | 0.00 | 0.00 | 0.00 | 68 | 1018.0 |
| 20260504020904 | 21 | 137 | 3.2 | 8.0 | 0.00 | 0.00 | 0.00 | 68 | 1017.9 |
| 20260504020405 | 21 | 144 | 4.8 | 11.3 | 0.00 | 0.00 | 0.00 | 68 | 1017.8 |
| 20260504015924 | 21 | 136 | 4.8 | 9.7 | 0.00 | 0.00 | 0.00 | 68 | 1017.8 |
| 20260504015405 | 21 | 130 | 3.2 | 9.7 | 0.00 | 0.00 | 0.00 | 67 | 1017.6 |
| 20260504014904 | 21 | 148 | 4.8 | 11.3 | 0.00 | 0.00 | 0.00 | 67 | 1017.6 |
| 20260504014405 | 21 | 169 | 3.2 | 9.7 | 0.00 | 0.00 | 0.00 | 67 | 1017.6 |
| 20260504013905 | 21 | 146 | 4.8 | 8.0 | 0.00 | 0.00 | 0.00 | 66 | 1017.6 |
| 20260504013404 | 21 | 142 | 4.8 | 11.3 | 0.00 | 0.00 | 0.00 | 66 | 1017.7 |
| 20260504012905 | 21 | 136 | 3.2 | 8.0 | 0.00 | 0.00 | 0.00 | 66 | 1017.7 |
| 20260504012404 | 21 | 155 | 3.2 | 14.5 | 0.00 | 0.00 | 0.00 | 65 | 1017.6 |
| 20260504011904 | 21 | 132 | 8.0 | 19.3 | 0.00 | 0.00 | 0.00 | 65 | 1017.5 |
| 20260504011405 | 21 | 130 | 6.4 | 11.3 | 0.00 | 0.00 | 0.00 | 65 | 1017.5 |
| 20260504010904 | 22 | 141 | 6.4 | 12.9 | 0.00 | 0.00 | 0.00 | 65 | 1017.5 |
| 20260504010404 | 22 | 137 | 3.2 | 14.5 | 0.00 | 0.00 | 0.00 | 64 | 1017.7 |
| 20260504005905 | 22 | 144 | 3.2 | 9.7 | 0.00 | 0.00 | 0.00 | 65 | 1017.5 |
| 20260504005405 | 22 | 126 | 3.2 | 11.3 | 0.00 | 0.00 | 0.00 | 64 | 1017.6 |
| 20260504004904 | 22 | 139 | 3.2 | 12.9 | 0.00 | 0.00 | 0.00 | 64 | 1017.7 |
| 20260504004404 | 22 | 124 | 4.8 | 8.0 | 0.00 | 0.00 | 0.00 | 63 | 1017.7 |
| 20260504003904 | 22 | 135 | 6.4 | 11.3 | 0.00 | 0.00 | 0.00 | 63 | 1017.7 |
| 20260504003404 | 23 | 134 | 3.2 | 12.9 | 0.00 | 0.00 | 0.00 | 63 | 1017.8 |
| 20260504002903 | 23 | 145 | 4.8 | 9.7 | 0.00 | 0.00 | 0.00 | 62 | 1017.8 |
| 20260504002405 | 23 | 135 | 3.2 | 19.3 | 0.00 | 0.00 | 0.00 | 62 | 1017.8 |
| 20260504001404 | 23 | 148 | 4.8 | 11.3 | 0.00 | 0.00 | 0.00 | 61 | 1017.8 |
| 20260504000906 | 23 | 138 | 8.0 | 19.3 | 0.00 | 0.00 | 0.00 | 61 | 1017.8 |
| 20260504000404 | 23 | 123 | 4.8 | 16.1 | 0.00 | 0.00 | 0.00 | 62 | 1017.9 |
| 20260503235904 | 23 | 141 | 4.8 | 12.9 | 0.00 | 0.00 | 0.00 | 62 | 1017.8 |
| 20260503234908 | 24 | 123 | 8.0 | 16.1 | 0.00 | 0.00 | 0.00 | 60 | 1017.7 |
| 20260503233907 | 24 | 131 | 4.8 | 19.3 | 0.00 | 0.00 | 0.00 | 60 | 1017.8 |
| 20260503233407 | 24 | 106 | 8.0 | 19.3 | 0.00 | 0.00 | 0.00 | 58 | 1017.7 |
| 20260503232908 | 25 | 102 | 8.0 | 19.3 | 0.00 | 0.00 | 0.00 | 59 | 1017.9 |
| 20260503231407 | 25 | 132 | 4.8 | 16.1 | 0.00 | 0.00 | 0.00 | 57 | 1018.1 |
| 20260503230907 | 25 | 143 | 6.4 | 12.9 | 0.00 | 0.00 | 0.00 | 59 | 1018.1 |
| 20260503230408 | 25 | 111 | 8.0 | 16.1 | 0.00 | 0.00 | 0.00 | 59 | 1017.9 |
| 20260503225907 | 25 | 121 | 8.0 | 12.9 | 0.00 | 0.00 | 0.00 | 57 | 1017.9 |
| 20260503225407 | 25 | 124 | 9.7 | 19.3 | 0.00 | 0.00 | 0.00 | 58 | 1018.1 |
| 20260503224907 | 25 | 135 | 11.3 | 22.5 | 0.00 | 0.00 | 0.00 | 59 | 1018.2 |
| 20260503224407 | 25 | 145 | 8.0 | 16.1 | 0.00 | 0.00 | 0.00 | 59 | 1018.2 |
| 20260503223907 | 25 | 126 | 9.7 | 14.5 | 0.00 | 0.00 | 0.00 | 59 | 1018.3 |
| 20260503223407 | 25 | 128 | 9.7 | 19.3 | 0.00 | 0.00 | 0.00 | 58 | 1018.3 |
| 20260503222907 | 25 | 129 | 9.7 | 20.9 | 0.00 | 0.00 | 0.00 | 59 | 1018.2 |
| 20260503222407 | 25 | 121 | 8.0 | 19.3 | 0.00 | 0.00 | 0.00 | 58 | 1018.2 |
| 20260503221407 | 25 | 118 | 4.8 | 19.3 | 0.00 | 0.00 | 0.00 | 60 | 1018.3 |
| 20260503220907 | 25 | 103 | 8.0 | 19.3 | 0.00 | 0.00 | 0.00 | 59 | 1018.3 |
| 20260503220407 | 25 | 137 | 8.0 | 20.9 | 0.00 | 0.00 | 0.00 | 59 | 1018.5 |
| 20260503215907 | 25 | 101 | 6.4 | 14.5 | 0.00 | 0.00 | 0.00 | 58 | 1018.5 |
| 20260503214907 | 25 | 100 | 6.4 | 19.3 | 0.00 | 0.00 | 0.00 | 58 | 1018.7 |
| 20260503214407 | 25 | 101 | 8.0 | 19.3 | 0.00 | 0.00 | 0.00 | 57 | 1018.8 |
| 20260503213907 | 25 | 131 | 8.0 | 19.3 | 0.00 | 0.00 | 0.00 | 58 | 1019.0 |
| 20260503213407 | 25 | 148 | 4.8 | 12.9 | 0.00 | 0.00 | 0.00 | 57 | 1019.0 |
| 20260503212907 | 26 | 80 | 6.4 | 22.5 | 0.00 | 0.00 | 0.00 | 56 | 1019.0 |
| 20260503211907 | 26 | 128 | 6.4 | 14.5 | 0.00 | 0.00 | 0.00 | 56 | 1019.4 |
| 20260503211407 | 26 | 137 | 8.0 | 16.1 | 0.00 | 0.00 | 0.00 | 55 | 1019.4 |
| 20260503210907 | 26 | 107 | 9.7 | 19.3 | 0.00 | 0.00 | 0.00 | 55 | 1019.5 |
| 20260503210406 | 26 | 137 | 4.8 | 19.3 | 0.00 | 0.00 | 0.00 | 56 | 1019.4 |
| 20260503205907 | 26 | 126 | 4.8 | 14.5 | 0.00 | 0.00 | 0.00 | 56 | 1019.4 |
| 20260503205407 | 26 | 111 | 8.0 | 19.3 | 0.00 | 0.00 | 0.00 | 54 | 1019.5 |
| 20260503204907 | 26 | 115 | 8.0 | 19.3 | 0.00 | 0.00 | 0.00 | 54 | 1019.5 |
| 20260503204407 | 26 | 142 | 8.0 | 14.5 | 0.00 | 0.00 | 0.00 | 54 | 1019.7 |
| 20260503203407 | 25 | 146 | 8.0 | 19.3 | 0.00 | 0.00 | 0.00 | 56 | 1019.8 |
| 20260503202907 | 25 | 140 | 4.8 | 16.1 | 0.00 | 0.00 | 0.00 | 53 | 1019.9 |
| 20260503202407 | 26 | 143 | 9.7 | 19.3 | 0.00 | 0.00 | 0.00 | 53 | 1019.9 |
| 20260503201907 | 26 | 100 | 4.8 | 16.1 | 0.00 | 0.00 | 0.00 | 52 | 1020.0 |
| 20260503201407 | 26 | 139 | 8.0 | 19.3 | 0.00 | 0.00 | 0.00 | 52 | 1020.3 |
| 20260503200907 | 26 | 141 | 4.8 | 11.3 | 0.00 | 0.00 | 0.00 | 54 | 1020.4 |
| 20260503200407 | 26 | 111 | 8.0 | 19.3 | 0.00 | 0.00 | 0.00 | 54 | 1020.5 |
| 20260503195907 | 26 | 132 | 8.0 | 16.1 | 0.00 | 0.00 | 0.00 | 54 | 1020.4 |
| 20260503195407 | 26 | 96 | 9.7 | 19.3 | 0.00 | 0.00 | 0.00 | 54 | 1020.6 |
| 20260503194907 | 26 | 150 | 8.0 | 16.1 | 0.00 | 0.00 | 0.00 | 53 | 1020.9 |
| 20260503194407 | 26 | 153 | 8.0 | 14.5 | 0.00 | 0.00 | 0.00 | 52 | 1020.9 |
| 20260503193907 | 26 | 141 | 9.7 | 20.9 | 0.00 | 0.00 | 0.00 | 52 | 1020.9 |
| 20260503193407 | 26 | 142 | 8.0 | 22.5 | 0.00 | 0.00 | 0.00 | 52 | 1020.9 |
| 20260503192907 | 26 | 133 | 6.4 | 16.1 | 0.00 | 0.00 | 0.00 | 52 | 1020.8 |
| 20260503192407 | 26 | 132 | 12.9 | 20.9 | 0.00 | 0.00 | 0.00 | 51 | 1020.9 |
| 20260503191907 | 26 | 60 | 4.8 | 19.3 | 0.00 | 0.00 | 0.00 | 51 | 1021.0 |
| 20260503191407 | 26 | 131 | 9.7 | 16.1 | 0.00 | 0.00 | 0.00 | 51 | 1021.0 |
| 20260503190907 | 26 | 117 | 8.0 | 19.3 | 0.00 | 0.00 | 0.00 | 49 | 1021.1 |
| 20260503185907 | 26 | 51 | 8.0 | 19.3 | 0.00 | 0.00 | 0.00 | 49 | 1021.2 |
| 20260503185406 | 26 | 108 | 4.8 | 16.1 | 0.00 | 0.00 | 0.00 | 51 | 1021.3 |
| 20260503184906 | 26 | 113 | 4.8 | 14.5 | 0.00 | 0.00 | 0.00 | 50 | 1021.3 |
| 20260503183907 | 26 | 144 | 9.7 | 19.3 | 0.00 | 0.00 | 0.00 | 49 | 1021.5 |
| 20260503183407 | 26 | 133 | 6.4 | 14.5 | 0.00 | 0.00 | 0.00 | 49 | 1021.6 |
| 20260503182906 | 26 | 111 | 4.8 | 12.9 | 0.00 | 0.00 | 0.00 | 50 | 1021.7 |
| 20260503182407 | 26 | 104 | 4.8 | 14.5 | 0.00 | 0.00 | 0.00 | 50 | 1021.8 |
| 20260503181406 | 26 | 79 | 4.8 | 14.5 | 0.00 | 0.00 | 0.00 | 52 | 1021.9 |
| 20260503180906 | 26 | 102 | 4.8 | 16.1 | 0.00 | 0.00 | 0.00 | 50 | 1021.9 |
| 20260503180406 | 26 | 138 | 4.8 | 16.1 | 0.00 | 0.00 | 0.00 | 52 | 1022.3 |
| 20260503175907 | 26 | 88 | 6.4 | 14.5 | 0.00 | 0.00 | 0.00 | 54 | 1022.1 |
| 20260503174906 | 26 | 92 | 4.8 | 14.5 | 0.00 | 0.00 | 0.00 | 52 | 1022.3 |
| 20260503174406 | 26 | 108 | 8.0 | 16.1 | 0.00 | 0.00 | 0.00 | 55 | 1022.2 |
| 20260503173906 | 25 | 139 | 8.0 | 14.5 | 0.00 | 0.00 | 0.00 | 54 | 1022.3 |
| 20260503173406 | 25 | 84 | 4.8 | 16.1 | 0.00 | 0.00 | 0.00 | 53 | 1022.3 |
| 20260503172906 | 26 | 130 | 8.0 | 20.9 | 0.00 | 0.00 | 0.00 | 56 | 1022.4 |
| 20260503172407 | 26 | 83 | 6.4 | 14.5 | 0.00 | 0.00 | 0.00 | 53 | 1022.4 |
| 20260503171906 | 26 | 120 | 6.4 | 14.5 | 0.00 | 0.00 | 0.00 | 54 | 1022.5 |
| 20260503171407 | 25 | 106 | 4.8 | 12.9 | 0.00 | 0.00 | 0.00 | 57 | 1022.5 |
| 20260503170907 | 25 | 123 | 8.0 | 16.1 | 0.00 | 0.00 | 0.00 | 54 | 1022.6 |
| 20260503170406 | 25 | 79 | 6.4 | 14.5 | 0.00 | 0.00 | 0.00 | 54 | 1022.6 |
| 20260503150406 | 25 | 25 | 3.2 | 14.5 | 0.00 | 0.00 | 0.00 | 65 | 1022.7 |
| 20260503131406 | 16 | 32 | 0.0 | 0.0 | 0.00 | 0.00 | 0.00 | 95 | 1022.0 |
| 20260503130906 | 16 | 32 | 0.0 | 0.0 | 0.00 | 0.00 | 0.00 | 95 | 1022.0 |
| 20260503130406 | 15 | 32 | 0.0 | 0.0 | 0.00 | 0.00 | 0.00 | 95 | 1021.7 |
| 20260503110406 | 12 | 34 | 0.0 | 0.0 | 0.00 | 0.00 | 0.00 | 93 | 1020.8 |
| 20260503080905 | 13 | 34 | 0.0 | 0.0 | 0.00 | 0.00 | 0.00 | 91 | 1021.1 |
| 20260503072905 | 13 | 34 | 0.0 | 0.0 | 0.00 | 0.00 | 0.00 | 91 | 1021.1 |
| 20260503072406 | 13 | 34 | 0.0 | 0.0 | 0.00 | 0.00 | 0.00 | 91 | 1021.2 |
| 20260503071905 | 14 | 34 | 0.0 | 0.0 | 0.00 | 0.00 | 0.00 | 91 | 1021.3 |
| 20260503070905 | 14 | 34 | 0.0 | 0.0 | 0.00 | 0.00 | 0.00 | 91 | 1021.4 |
| 20260503070405 | 14 | 34 | 0.0 | 0.0 | 0.00 | 0.00 | 0.00 | 91 | 1021.3 |